Starlink 31977

operational
NORAD ID: 59892 Int'l Des: 2024-100 Owner: SPXS Country: US Constellation: starlink
LEOCIRCULAR

Über Starlink 31977

Beschreibung wird geladen...

Live-Position

3D-Globus wird geladen...

Nächste Überflüge

Höhenverlauf

Altitude vs Time

uPlot chart will show altitude changes over time

Zweizeiliger Elementsatz

1 59892U 24100H 26094.99566223 .00013724 00000-0 50721-3 0 9998
2 59892 43.0016 329.6042 0001508 301.5944 58.4760 15.27585681105267
Epoch: 4. Apr. 2026 • Age: 20 hours

Aktueller Status

Höhe 495.4 km
Geschwindigkeit 7.62 km/s
Subsatellitenpunkt -43.06°S, 106.84°E
Startdatum 28. Mai 2024
Alter 1.8 years
Typ internet

Technische Details

Klassifizierung Payload
Masse 730.00 kg
Trockenmasse 700.00 kg
Gesamtmasse 730.00 kg
Länge 0.30 m
Durchmesser 4.10 m
Spannweite 29.00 m
Form Box + pan
Hersteller SPXS
Bus-Typ Starlink V2M
Phasenstatus In Orbit
Besitzer/Staat SPXS/US

Große Konstellationen

Loading constellations...